• în România
  • Lista ţărilor
  • Pe 7 zile
  • Temperatura apei
  • Hartă satelitară
  • Meteo pe hartă
  • Widget-uri
  • user-avatar
    Intrare

    Meteo pe oră la Solden

    Astăzi, 20 Septembrie, Joi

    Timp Temperatura Precipitaţii Vânt Presiune Umiditate
    00:00 +6°C° 0 mm 1 m/s 587 mmHg 84%
    01:00 +6°C° 0 mm 1 m/s 587 mmHg 81%
    02:00 +6°C° 0 mm 1 m/s 587 mmHg 81%
    03:00 +5°C° 0 mm 1 m/s 587 mmHg 81%
    04:00 +5°C° 0 mm 1 m/s 586 mmHg 80%
    05:00 +6°C° 0 mm 1 m/s 587 mmHg 78%
    06:00 +6°C° 0 mm 1 m/s 587 mmHg 75%
    07:00 +8°C° 0 mm 1 m/s 588 mmHg 71%
    08:00 +11°C° 0 mm 1 m/s 589 mmHg 62%
    09:00 +13°C° 0 mm 1 m/s 590 mmHg 53%
    10:00 +15°C° 0 mm 1 m/s 591 mmHg 44%
    11:00 +16°C° 0 mm 1 m/s 591 mmHg 42%
    12:00 +18°C° 0 mm 1 m/s 591 mmHg 40%
    13:00 +18°C° 0 mm 1 m/s 591 mmHg 39%
    14:00 +18°C° 0 mm 1 m/s 591 mmHg 41%
    15:00 +16°C° 0 mm 1 m/s 590 mmHg 43%
    16:00 +16°C° 0 mm 1 m/s 590 mmHg 45%
    17:00 +13°C° 0 mm 1 m/s 589 mmHg 56%
    18:00 +11°C° 0 mm 1 m/s 587 mmHg 68%
    19:00 +8°C° 0 mm 1 m/s 586 mmHg 79%
    20:00 +8°C° 0 mm 1 m/s 586 mmHg 81%
    21:00 +7°C° 0 mm 1 m/s 586 mmHg 83%
    22:00 +7°C° 0 mm 1 m/s 586 mmHg 85%
    23:00 +7°C° 0 mm 1 m/s 586 mmHg 86%

    Mâine, 21 Septembrie, Vineri

    Timp Temperatura Precipitaţii Vânt Presiune Umiditate
    00:00 +7°C° 0 mm 1 m/s 585 mmHg 87%
    01:00 +5°C° 0 mm 2 m/s 585 mmHg 89%
    02:00 +5°C° 0 mm 2 m/s 585 mmHg 89%
    03:00 +5°C° 0 mm 2 m/s 585 mmHg 90%
    04:00 +5°C° 0 mm 2 m/s 584 mmHg 91%
    05:00 +6°C° 0 mm 1 m/s 584 mmHg 90%
    06:00 +6°C° 0 mm 1 m/s 584 mmHg 88%
    07:00 +7°C° 0 mm 1 m/s 585 mmHg 87%
    08:00 +9°C° 0 mm 1 m/s 586 mmHg 76%
    09:00 +12°C° 0 mm 1 m/s 587 mmHg 65%
    10:00 +15°C° 0 mm 1 m/s 588 mmHg 54%
    11:00 +15°C° 0 mm 1 m/s 588 mmHg 51%
    12:00 +16°C° 0 mm 2 m/s 588 mmHg 48%
    13:00 +17°C° 0 mm 2 m/s 588 mmHg 45%
    14:00 +16°C° 0 mm 2 m/s 588 mmHg 48%
    15:00 +16°C° 0 mm 2 m/s 587 mmHg 52%
    16:00 +15°C° 0 mm 2 m/s 587 mmHg 55%
    17:00 +13°C° 0.1 mm 1 m/s 586 mmHg 66%
    18:00 +11°C° 0.1 mm 1 m/s 586 mmHg 76%
    19:00 +9°C° 0.1 mm 1 m/s 585 mmHg 87%
    20:00 +9°C° 0.2 mm 1 m/s 585 mmHg 89%
    21:00 +8°C° 0.2 mm 1 m/s 585 mmHg 91%
    22:00 +7°C° 0.2 mm 0 m/s 586 mmHg 93%
    23:00 +8°C° 0.2 mm 1 m/s 586 mmHg 94%

    Poimâine, 22 Septembrie, Sâmbătă

    Timp Temperatura Precipitaţii Vânt Presiune Umiditate
    00:00 +8°C° 0.2 mm 1 m/s 586 mmHg 94%
    01:00 +8°C° 0.2 mm 1 m/s 586 mmHg 94%
    02:00 +8°C° 0.3 mm 1 m/s 586 mmHg 95%
    03:00 +7°C° 0.3 mm 1 m/s 585 mmHg 95%
    04:00 +7°C° 0.3 mm 1 m/s 585 mmHg 95%
    05:00 +7°C° 0.2 mm 1 m/s 586 mmHg 94%
    06:00 +7°C° 0.2 mm 1 m/s 586 mmHg 93%
    07:00 +7°C° 0.2 mm 1 m/s 586 mmHg 93%
    08:00 +8°C° 0 mm 1 m/s 587 mmHg 86%
    09:00 +10°C° 0 mm 1 m/s 587 mmHg 79%
    10:00 +11°C° 0 mm 1 m/s 588 mmHg 72%
    11:00 +12°C° 0.1 mm 1 m/s 588 mmHg 70%
    12:00 +12°C° 0.1 mm 1 m/s 589 mmHg 68%
    13:00 +13°C° 0.1 mm 2 m/s 589 mmHg 66%
    14:00 +13°C° 0.1 mm 2 m/s 589 mmHg 67%
    15:00 +13°C° 0.1 mm 2 m/s 588 mmHg 68%
    16:00 +12°C° 0.1 mm 2 m/s 588 mmHg 68%
    17:00 +11°C° 0.2 mm 1 m/s 588 mmHg 74%
    18:00 +9°C° 0.2 mm 1 m/s 588 mmHg 80%
    19:00 +8°C° 0.2 mm 1 m/s 587 mmHg 86%
    20:00 +8°C° 0.1 mm 1 m/s 587 mmHg 86%
    21:00 +8°C° 0.1 mm 1 m/s 588 mmHg 86%
    22:00 +7°C° 0.1 mm 1 m/s 588 mmHg 86%
    23:00 +7°C° 0 mm 1 m/s 588 mmHg 85%

    23 Septembrie, Duminică

    Timp Temperatura Precipitaţii Vânt Presiune Umiditate
    00:00 +8°C° 0 mm 1 m/s 588 mmHg 84%
    01:00 +8°C° 0 mm 1 m/s 588 mmHg 83%
    02:00 +8°C° 0.1 mm 1 m/s 588 mmHg 82%
    03:00 +8°C° 0.1 mm 1 m/s 588 mmHg 82%
    04:00 +8°C° 0.1 mm 1 m/s 588 mmHg 82%
    05:00 +8°C° 0.1 mm 1 m/s 588 mmHg 81%
    06:00 +8°C° 0.1 mm 1 m/s 588 mmHg 81%
    07:00 +8°C° 0.1 mm 1 m/s 588 mmHg 80%
    08:00 +10°C° 0 mm 1 m/s 589 mmHg 74%
    09:00 +12°C° 0 mm 1 m/s 590 mmHg 67%
    10:00 +14°C° 0 mm 1 m/s 591 mmHg 61%
    11:00 +15°C° 0 mm 1 m/s 591 mmHg 58%
    12:00 +16°C° 0 mm 2 m/s 591 mmHg 55%
    13:00 +18°C° 0 mm 2 m/s 592 mmHg 53%
    14:00 +17°C° 0.1 mm 2 m/s 591 mmHg 56%
    15:00 +17°C° 0.1 mm 2 m/s 591 mmHg 59%
    16:00 +16°C° 0.1 mm 2 m/s 590 mmHg 62%
    17:00 +14°C° 0.2 mm 2 m/s 589 mmHg 72%
    18:00 +12°C° 0.2 mm 2 m/s 588 mmHg 82%
    19:00 +9°C° 0.2 mm 2 m/s 587 mmHg 92%
    20:00 +9°C° 0.1 mm 2 m/s 587 mmHg 94%
    21:00 +9°C° 0.1 mm 2 m/s 586 mmHg 95%
    22:00 +8°C° 0.1 mm 2 m/s 586 mmHg 96%
    23:00 +8°C° 0 mm 2 m/s 586 mmHg 95%

    24 Septembrie, Luni

    Timp Temperatura Precipitaţii Vânt Presiune Umiditate
    00:00 +8°C° 0 mm 2 m/s 585 mmHg 95%
    01:00 +8°C° 0 mm 2 m/s 585 mmHg 94%
    02:00 +8°C° 0.2 mm 2 m/s 584 mmHg 92%
    03:00 +8°C° 0.2 mm 2 m/s 584 mmHg 91%
    04:00 +8°C° 0.2 mm 2 m/s 584 mmHg 89%
    05:00 +8°C° 0.3 mm 2 m/s 585 mmHg 89%
    06:00 +7°C° 0.3 mm 2 m/s 585 mmHg 88%
    07:00 +7°C° 0.3 mm 3 m/s 585 mmHg 88%
    08:00 +8°C° 0.1 mm 3 m/s 586 mmHg 80%
    09:00 +9°C° 0.1 mm 3 m/s 587 mmHg 72%
    10:00 +10°C° 0.1 mm 3 m/s 588 mmHg 64%
    11:00 +11°C° 0 mm 3 m/s 588 mmHg 62%
    12:00 +11°C° 0 mm 3 m/s 589 mmHg 59%
    13:00 +11°C° 0 mm 3 m/s 589 mmHg 56%
    14:00 +10°C° 0 mm 3 m/s 589 mmHg 57%
    15:00 +10°C° 0 mm 3 m/s 589 mmHg 59%
    16:00 +9°C° 0 mm 3 m/s 588 mmHg 60%
    17:00 +7°C° 0 mm 3 m/s 588 mmHg 65%
    18:00 +4°C° 0 mm 3 m/s 588 mmHg 70%
    19:00 +2°C° 0 mm 3 m/s 587 mmHg 75%
    20:00 +1°C° 0 mm 3 m/s 588 mmHg 76%
    21:00 0°C° 0 mm 3 m/s 588 mmHg 77%
    22:00 -1°C° 0 mm 3 m/s 588 mmHg 78%
    23:00 -1°C° 0 mm 3 m/s 588 mmHg 79%

    25 Septembrie, Marţi

    Timp Temperatura Precipitaţii Vânt Presiune Umiditate
    00:00 -2°C° 0 mm 2 m/s 588 mmHg 79%
    01:00 -3°C° 0 mm 2 m/s 588 mmHg 79%
    02:00 -3°C° 0 mm 2 m/s 588 mmHg 79%
    03:00 -4°C° 0 mm 2 m/s 588 mmHg 79%
    04:00 -4°C° 0 mm 2 m/s 588 mmHg 79%
    05:00 -4°C° 0 mm 2 m/s 588 mmHg 77%
    06:00 -4°C° 0 mm 2 m/s 588 mmHg 75%
    07:00 -4°C° 0 mm 2 m/s 589 mmHg 73%
    08:00 -2°C° 0 mm 2 m/s 590 mmHg 61%
    09:00 +2°C° 0 mm 2 m/s 591 mmHg 50%
    10:00 +4°C° 0 mm 2 m/s 592 mmHg 39%
    11:00 +4°C° 0 mm 3 m/s 593 mmHg 36%
    12:00 +5°C° 0 mm 3 m/s 593 mmHg 33%
    13:00 +7°C° 0 mm 3 m/s 593 mmHg 30%
    14:00 +5°C° 0 mm 3 m/s 593 mmHg 31%
    15:00 +5°C° 0 mm 3 m/s 593 mmHg 32%
    16:00 +4°C° 0 mm 3 m/s 592 mmHg 32%
    17:00 +2°C° 0 mm 3 m/s 592 mmHg 42%
    18:00 -1°C° 0 mm 2 m/s 591 mmHg 51%
    19:00 -1°C° 0 mm 1 m/s 590 mmHg 60%
    20:00 -2°C° 0 mm 1 m/s 591 mmHg 59%
    21:00 -2°C° 0 mm 1 m/s 591 mmHg 57%
    22:00 -3°C° 0 mm 1 m/s 591 mmHg 56%
    23:00 -2°C° 0 mm 1 m/s 591 mmHg 51%
    Arată mai mult